TimeEST,TemperatureF,Dew PointF,Humidity,Sea Level PressureIn,VisibilityMPH,Wind Direction,Wind SpeedMPH,Gust SpeedMPH,PrecipitationIn,Events,Conditions,WindDirDegrees,DateUTC
12:15 AM,5.0,1.4,85,30.23,10.0,WSW,11.5,-,N/A,,Mostly Cloudy,240,2013-01-18 05:15:00
12:34 AM,5.0,1.4,85,30.23,10.0,WSW,10.4,-,N/A,,Mostly Cloudy,240,2013-01-18 05:34:00
12:55 AM,5.0,1.4,85,30.23,10.0,WSW,10.4,-,N/A,,Mostly Cloudy,240,2013-01-18 05:55:00
1:15 AM,3.2,1.4,92,30.24,10.0,SW,9.2,-,N/A,,Overcast,230,2013-01-18 06:15:00
1:34 AM,3.2,1.4,92,30.24,10.0,SW,10.4,-,N/A,,Overcast,230,2013-01-18 06:34:00
1:55 AM,5.0,1.4,85,30.25,10.0,SW,11.5,-,N/A,,Overcast,230,2013-01-18 06:55:00
2:14 AM,3.2,-0.4,85,30.25,10.0,SW,11.5,-,N/A,,Mostly Cloudy,220,2013-01-18 07:14:00
2:35 AM,3.2,-0.4,85,30.25,10.0,SW,12.7,-,N/A,,Scattered Clouds,230,2013-01-18 07:35:00
2:55 AM,5.0,-0.4,78,30.26,10.0,SW,12.7,-,N/A,,Scattered Clouds,230,2013-01-18 07:55:00
3:14 AM,5.0,-0.4,78,30.27,10.0,WSW,12.7,-,N/A,,Scattered Clouds,240,2013-01-18 08:14:00
3:35 AM,5.0,1.4,85,30.27,10.0,WSW,15.0,-,N/A,,Clear,240,2013-01-18 08:35:00
3:54 AM,5.0,-0.4,78,30.26,10.0,SW,13.8,-,N/A,,Scattered Clouds,230,2013-01-18 08:54:00
4:14 AM,5.0,-0.4,78,30.26,10.0,SW,15.0,-,N/A,,Clear,230,2013-01-18 09:14:00
4:35 AM,5.0,-0.4,78,30.25,10.0,WSW,10.4,-,N/A,,Clear,240,2013-01-18 09:35:00
4:54 AM,3.2,-0.4,85,30.25,10.0,SW,10.4,-,N/A,,Clear,230,2013-01-18 09:54:00
5:15 AM,3.2,-2.2,78,30.24,10.0,SW,9.2,-,N/A,,Scattered Clouds,230,2013-01-18 10:15:00
5:35 AM,3.2,-2.2,78,30.25,10.0,SW,9.2,-,N/A,,Mostly Cloudy,230,2013-01-18 10:35:00
5:54 AM,5.0,-0.4,78,30.25,10.0,WSW,9.2,-,N/A,,Overcast,240,2013-01-18 10:54:00
6:15 AM,5.0,-0.4,78,30.25,10.0,WSW,11.5,-,N/A,,Overcast,240,2013-01-18 11:15:00
6:35 AM,6.8,-0.4,72,30.25,10.0,WSW,9.2,-,N/A,,Overcast,240,2013-01-18 11:35:00
6:54 AM,6.8,-0.4,72,30.23,10.0,SW,6.9,-,N/A,,Overcast,230,2013-01-18 11:54:00
7:15 AM,5.0,-0.4,78,30.23,10.0,WSW,8.1,-,N/A,,Mostly Cloudy,240,2013-01-18 12:15:00
7:35 AM,5.0,-0.4,78,30.23,10.0,SW,9.2,-,N/A,,Scattered Clouds,230,2013-01-18 12:35:00
7:54 AM,5.0,-0.4,78,30.23,10.0,SW,8.1,-,N/A,,Scattered Clouds,230,2013-01-18 12:54:00
8:15 AM,5.0,-0.4,78,30.22,10.0,SW,8.1,-,N/A,,Scattered Clouds,220,2013-01-18 13:15:00
8:35 AM,5.0,-0.4,78,30.21,10.0,SW,8.1,-,N/A,,Mostly Cloudy,220,2013-01-18 13:35:00
8:54 AM,5.0,-0.4,78,30.21,10.0,SW,6.9,-,N/A,,Mostly Cloudy,220,2013-01-18 13:54:00
9:15 AM,5.0,-0.4,78,30.20,10.0,SSW,6.9,-,N/A,,Mostly Cloudy,210,2013-01-18 14:15:00
9:34 AM,6.8,1.4,79,30.21,10.0,SW,8.1,-,N/A,,Mostly Cloudy,220,2013-01-18 14:34:00
9:55 AM,8.6,1.4,73,30.21,10.0,SW,8.1,-,N/A,,Mostly Cloudy,220,2013-01-18 14:55:00
10:14 AM,8.6,1.4,73,30.20,10.0,SW,4.6,-,N/A,,Overcast,230,2013-01-18 15:14:00
10:34 AM,10.4,1.4,67,30.19,10.0,WSW,3.5,-,N/A,,Overcast,240,2013-01-18 15:34:00
10:55 AM,10.4,5.0,79,30.16,1.2,WSW,4.6,-,N/A,Snow,Light Snow,240,2013-01-18 15:55:00
11:14 AM,10.4,6.8,85,30.15,1.0,Calm,Calm,-,N/A,Snow,Light Snow,0,2013-01-18 16:14:00
11:35 AM,10.4,6.8,85,30.12,0.8,Calm,Calm,-,N/A,Snow,Light Snow,0,2013-01-18 16:35:00
11:54 AM,10.4,8.6,92,30.10,0.5,Calm,Calm,-,N/A,Snow,Snow,0,2013-01-18 16:54:00
12:14 PM,12.2,8.6,85,30.07,0.2,ESE,3.5,-,N/A,Snow,Snow,120,2013-01-18 17:14:00
12:35 PM,12.2,8.6,85,30.05,0.2,ESE,3.5,-,N/A,Snow,Snow,110,2013-01-18 17:35:00
12:54 PM,12.2,8.6,85,30.04,0.2,Calm,Calm,-,N/A,Snow,Snow,0,2013-01-18 17:54:00
1:15 PM,12.2,8.6,85,30.03,0.5,Calm,Calm,-,N/A,Snow,Snow,0,2013-01-18 18:15:00
1:34 PM,12.2,10.4,92,30.01,0.2,NE,3.5,-,N/A,Snow,Snow,50,2013-01-18 18:34:00
1:55 PM,12.2,10.4,92,29.99,0.2,ENE,4.6,-,N/A,Snow,Snow,60,2013-01-18 18:55:00
2:15 PM,14.0,10.4,86,29.97,0.5,ENE,5.8,-,N/A,Snow,Snow,70,2013-01-18 19:15:00
2:34 PM,14.0,12.2,93,29.95,0.5,ENE,6.9,-,N/A,Snow,Snow,70,2013-01-18 19:34:00
2:55 PM,15.8,12.2,86,29.93,0.5,ENE,5.8,-,N/A,Snow,Snow,60,2013-01-18 19:55:00
3:14 PM,15.8,12.2,86,29.91,0.8,East,4.6,-,N/A,Snow,Light Snow,80,2013-01-18 20:14:00
3:35 PM,15.8,14.0,93,29.89,0.8,East,5.8,-,N/A,Snow,Light Snow,80,2013-01-18 20:35:00
3:55 PM,17.6,15.8,93,29.88,0.8,SE,8.1,-,N/A,Snow,Light Snow,130,2013-01-18 20:55:00
4:14 PM,19.4,17.6,93,29.87,0.8,ESE,8.1,-,N/A,Snow,Light Snow,120,2013-01-18 21:14:00
4:35 PM,19.4,15.8,86,29.85,0.8,ESE,12.7,16.1,N/A,Snow,Light Snow,110,2013-01-18 21:35:00
4:55 PM,17.6,15.8,93,29.84,0.8,ESE,9.2,-,N/A,Snow,Light Snow,110,2013-01-18 21:55:00
5:14 PM,17.6,15.8,93,29.83,1.0,ESE,10.4,-,N/A,Snow,Light Snow,110,2013-01-18 22:14:00
5:35 PM,17.6,15.8,93,29.82,1.8,ESE,10.4,-,N/A,Snow,Light Snow,120,2013-01-18 22:35:00
5:55 PM,17.6,15.8,93,29.82,1.8,ESE,8.1,-,N/A,Snow,Light Snow,120,2013-01-18 22:55:00
6:14 PM,17.6,15.8,93,29.81,1.2,ESE,9.2,-,N/A,Snow,Light Snow,120,2013-01-18 23:14:00
6:35 PM,17.6,15.8,93,29.79,1.5,SE,8.1,-,N/A,Snow,Light Snow,130,2013-01-18 23:35:00
6:54 PM,17.6,15.8,93,29.79,2.5,ESE,8.1,-,N/A,Snow,Light Snow,120,2013-01-18 23:54:00
7:15 PM,17.6,15.8,93,29.79,5.0,ESE,3.5,-,N/A,Snow,Light Snow,110,2013-01-19 00:15:00
7:35 PM,17.6,15.8,93,29.79,3.0,Calm,Calm,-,N/A,Snow,Light Snow,0,2013-01-19 00:35:00
7:54 PM,17.6,15.8,93,29.78,2.5,Calm,Calm,-,N/A,Snow,Light Snow,0,2013-01-19 00:54:00
8:15 PM,17.6,15.8,93,29.78,7.0,Calm,Calm,-,N/A,Snow,Light Snow,0,2013-01-19 01:15:00
8:35 PM,17.6,15.8,93,29.78,10.0,NNW,3.5,-,N/A,Snow,Light Snow,340,2013-01-19 01:35:00
8:54 PM,17.6,15.8,93,29.77,7.0,Calm,Calm,-,N/A,Snow,Light Snow,0,2013-01-19 01:54:00
9:15 PM,17.6,15.8,93,29.77,1.8,Calm,Calm,-,N/A,Snow,Light Snow,0,2013-01-19 02:15:00
9:35 PM,17.6,15.8,93,29.76,1.8,Calm,Calm,-,N/A,Snow,Light Snow,0,2013-01-19 02:35:00
9:54 PM,17.6,15.8,93,29.75,2.5,Calm,Calm,-,N/A,Snow,Light Snow,0,2013-01-19 02:54:00
10:15 PM,17.6,15.8,93,29.74,1.5,Calm,Calm,-,N/A,Snow,Light Snow,0,2013-01-19 03:15:00
10:34 PM,17.6,15.8,93,29.73,2.0,Calm,Calm,-,N/A,Snow,Light Snow,0,2013-01-19 03:34:00
10:55 PM,19.4,15.8,86,29.72,4.0,Calm,Calm,-,N/A,Snow,Light Snow,0,2013-01-19 03:55:00
11:15 PM,19.4,17.6,93,29.73,2.5,Calm,Calm,-,N/A,Snow,Light Snow,0,2013-01-19 04:15:00
11:34 PM,19.4,17.6,93,29.72,10.0,Calm,Calm,-,N/A,,Overcast,0,2013-01-19 04:34:00
11:55 PM,19.4,17.6,93,29.72,10.0,Calm,Calm,-,N/A,,Overcast,0,2013-01-19 04:55:00